Year,Month,Day,Hour,Minute,Value (Times are PST for temperature in C)
2008,08,25,00,00,11.60
2008,08,25,00,01,11.70
2008,08,25,00,02,11.60
2008,08,25,00,03,11.60
2008,08,25,00,04,11.60
2008,08,25,00,05,11.60
2008,08,25,00,06,11.60
2008,08,25,00,07,11.60
2008,08,25,00,08,11.60
2008,08,25,00,09,11.60
2008,08,25,00,10,11.60
2008,08,25,00,11,11.60
2008,08,25,00,12,11.60
2008,08,25,00,13,11.60
2008,08,25,00,14,11.60
2008,08,25,00,15,11.60
2008,08,25,00,16,11.60
2008,08,25,00,17,11.60
2008,08,25,00,18,11.60
2008,08,25,00,19,11.60
2008,08,25,00,20,11.60
2008,08,25,00,21,11.60
2008,08,25,00,22,11.60
2008,08,25,00,23,11.60
2008,08,25,00,24,11.60
2008,08,25,00,25,11.60
2008,08,25,00,26,11.60
2008,08,25,00,27,11.60
2008,08,25,00,28,11.60
2008,08,25,00,29,11.50
2008,08,25,00,30,11.50
2008,08,25,00,31,11.50
2008,08,25,00,32,11.40
2008,08,25,00,33,11.40
2008,08,25,00,34,11.40
2008,08,25,00,35,11.40
2008,08,25,00,36,11.40
2008,08,25,00,37,11.40
2008,08,25,00,38,11.40
2008,08,25,00,39,11.40
2008,08,25,00,40,11.40
2008,08,25,00,41,11.40
2008,08,25,00,42,11.40
2008,08,25,00,43,11.40
2008,08,25,00,44,11.40
2008,08,25,00,45,11.40
2008,08,25,00,46,11.40
2008,08,25,00,47,11.40
2008,08,25,00,48,11.40
2008,08,25,00,49,11.40
2008,08,25,00,50,11.40
2008,08,25,00,51,11.40
2008,08,25,00,52,11.40
2008,08,25,00,53,11.40
2008,08,25,00,54,11.40
2008,08,25,00,55,11.40
2008,08,25,00,56,11.40
2008,08,25,00,57,11.40
2008,08,25,00,58,11.40
2008,08,25,00,59,11.40
2008,08,25,01,00,11.40
2008,08,25,01,01,11.30
2008,08,25,01,02,11.30
2008,08,25,01,03,11.30
2008,08,25,01,04,11.30
2008,08,25,01,05,11.30
2008,08,25,01,06,11.30
2008,08,25,01,07,11.30
2008,08,25,01,08,11.30
2008,08,25,01,09,11.30
2008,08,25,01,10,11.30
2008,08,25,01,11,11.20
2008,08,25,01,12,11.20
2008,08,25,01,13,11.20
2008,08,25,01,14,11.20
2008,08,25,01,15,11.20
2008,08,25,01,16,11.20
2008,08,25,01,17,11.20
2008,08,25,01,18,11.10
2008,08,25,01,19,11.20
2008,08,25,01,20,11.20
2008,08,25,01,21,11.20
2008,08,25,01,22,11.20
2008,08,25,01,23,11.20
2008,08,25,01,24,11.30
2008,08,25,01,25,11.30
2008,08,25,01,26,11.30
2008,08,25,01,27,11.40
2008,08,25,01,28,11.40
2008,08,25,01,29,11.40
2008,08,25,01,30,11.50
2008,08,25,01,31,11.60
2008,08,25,01,32,11.60
2008,08,25,01,33,11.70
2008,08,25,01,34,11.70
2008,08,25,01,35,11.70
2008,08,25,01,36,11.90
2008,08,25,01,37,12.10
2008,08,25,01,38,12.30
2008,08,25,01,39,12.40
2008,08,25,01,40,12.40
2008,08,25,01,41,12.40
2008,08,25,01,42,12.40
2008,08,25,01,43,12.40
2008,08,25,01,44,12.40
2008,08,25,01,45,12.40
2008,08,25,01,46,12.40
2008,08,25,01,47,12.40
2008,08,25,01,48,12.40
2008,08,25,01,49,12.40
2008,08,25,01,50,12.30
2008,08,25,01,51,12.30
2008,08,25,01,52,12.30
2008,08,25,01,53,12.20
2008,08,25,01,54,12.20
2008,08,25,01,55,12.20
2008,08,25,01,56,12.20
2008,08,25,01,57,12.20
2008,08,25,01,58,12.10
2008,08,25,01,59,12.10
2008,08,25,02,00,12.10
2008,08,25,02,01,12.00
2008,08,25,02,02,12.00
2008,08,25,02,03,11.90
2008,08,25,02,04,11.90
2008,08,25,02,05,11.80
2008,08,25,02,06,11.80
2008,08,25,02,07,11.80
2008,08,25,02,08,11.80
2008,08,25,02,09,11.80
2008,08,25,02,10,11.80
2008,08,25,02,11,11.80
2008,08,25,02,12,11.80
2008,08,25,02,13,11.80
2008,08,25,02,14,11.80
2008,08,25,02,15,11.80
2008,08,25,02,16,11.80
2008,08,25,02,17,11.80
2008,08,25,02,18,11.70
2008,08,25,02,19,11.60
2008,08,25,02,20,11.50
2008,08,25,02,21,11.40
2008,08,25,02,22,11.40
2008,08,25,02,23,11.40
2008,08,25,02,24,11.30
2008,08,25,02,25,11.30
2008,08,25,02,26,11.30
2008,08,25,02,27,11.30
2008,08,25,02,28,11.20
2008,08,25,02,29,11.20
2008,08,25,02,30,11.20
2008,08,25,02,31,11.20
2008,08,25,02,32,11.20
2008,08,25,02,33,11.20
2008,08,25,02,34,11.30
2008,08,25,02,35,11.40
2008,08,25,02,36,11.70
2008,08,25,02,37,11.90
2008,08,25,02,38,12.00
2008,08,25,02,39,12.10
2008,08,25,02,40,12.20
2008,08,25,02,41,12.20
2008,08,25,02,42,12.20
2008,08,25,02,43,12.30
2008,08,25,02,44,12.30
2008,08,25,02,45,12.30
2008,08,25,02,46,12.30
2008,08,25,02,47,12.30
2008,08,25,02,48,12.30
2008,08,25,02,49,12.30
2008,08,25,02,50,12.30
2008,08,25,02,51,12.40
2008,08,25,02,52,12.40
2008,08,25,02,53,12.40
2008,08,25,02,54,12.50
2008,08,25,02,55,12.60
2008,08,25,02,56,12.70
2008,08,25,02,57,12.80
2008,08,25,02,58,12.80
2008,08,25,02,59,12.80
2008,08,25,03,00,12.80
2008,08,25,03,01,12.70
2008,08,25,03,02,12.60
2008,08,25,03,03,12.50
2008,08,25,03,04,12.50
2008,08,25,03,05,12.50
2008,08,25,03,06,12.40
2008,08,25,03,07,12.40
2008,08,25,03,08,12.40
2008,08,25,03,09,12.40
2008,08,25,03,10,12.30
2008,08,25,03,11,12.30
2008,08,25,03,12,12.30
2008,08,25,03,13,12.30
2008,08,25,03,14,12.30
2008,08,25,03,15,12.30
2008,08,25,03,16,12.40
2008,08,25,03,17,12.40
2008,08,25,03,18,12.40
2008,08,25,03,19,12.30
2008,08,25,03,20,12.30
2008,08,25,03,21,12.30
2008,08,25,03,22,12.30
2008,08,25,03,23,12.30
2008,08,25,03,24,12.30
2008,08,25,03,25,12.30
2008,08,25,03,26,12.30
2008,08,25,03,27,12.30
2008,08,25,03,28,12.30
2008,08,25,03,29,12.30
2008,08,25,03,30,12.30
2008,08,25,03,31,12.30
2008,08,25,03,32,12.30
2008,08,25,03,33,12.30
2008,08,25,03,34,12.30
2008,08,25,03,35,12.30
2008,08,25,03,36,12.30
2008,08,25,03,37,12.20
2008,08,25,03,38,12.20
2008,08,25,03,39,12.20
2008,08,25,03,40,12.20
2008,08,25,03,41,12.10
2008,08,25,03,42,12.10
2008,08,25,03,43,12.00
2008,08,25,03,44,12.00
2008,08,25,03,45,11.90
2008,08,25,03,46,11.90
2008,08,25,03,47,11.80
2008,08,25,03,48,11.80
2008,08,25,03,49,11.70
2008,08,25,03,50,11.60
2008,08,25,03,51,11.60
2008,08,25,03,52,11.50
2008,08,25,03,53,11.50
2008,08,25,03,54,11.40
2008,08,25,03,55,11.50
2008,08,25,03,56,11.50
2008,08,25,03,57,11.50
2008,08,25,03,58,11.60
2008,08,25,03,59,11.70
2008,08,25,04,00,11.70
2008,08,25,04,01,11.80
2008,08,25,04,02,11.80
2008,08,25,04,03,11.80
2008,08,25,04,04,11.80
2008,08,25,04,05,11.80
2008,08,25,04,06,11.90
2008,08,25,04,07,11.90
2008,08,25,04,08,12.00
2008,08,25,04,09,12.00
2008,08,25,04,10,12.20
2008,08,25,04,11,12.30
2008,08,25,04,12,12.30
2008,08,25,04,13,12.30
2008,08,25,04,14,12.30
2008,08,25,04,15,12.30
2008,08,25,04,16,12.30
2008,08,25,04,17,12.30
2008,08,25,04,18,12.30
2008,08,25,04,19,12.30
2008,08,25,04,20,12.20
2008,08,25,04,21,12.20
2008,08,25,04,22,12.20
2008,08,25,04,23,12.20
2008,08,25,04,24,12.20
2008,08,25,04,25,12.20
2008,08,25,04,26,12.20
2008,08,25,04,27,12.30
2008,08,25,04,28,12.30
2008,08,25,04,29,12.20
2008,08,25,04,30,12.20
2008,08,25,04,31,12.20
2008,08,25,04,32,12.20
2008,08,25,04,33,12.20
2008,08,25,04,34,12.10
2008,08,25,04,35,12.00
2008,08,25,04,36,12.00
2008,08,25,04,37,11.90
2008,08,25,04,38,11.80
2008,08,25,04,39,11.80
2008,08,25,04,40,11.80
2008,08,25,04,41,11.80
2008,08,25,04,42,11.80
2008,08,25,04,43,11.90
2008,08,25,04,44,12.00
2008,08,25,04,45,12.00
2008,08,25,04,46,12.10
2008,08,25,04,47,12.10
2008,08,25,04,48,12.10
2008,08,25,04,49,12.10
2008,08,25,04,50,12.10
2008,08,25,04,51,12.10
2008,08,25,04,52,12.10
2008,08,25,04,53,12.00
2008,08,25,04,54,12.00
2008,08,25,04,55,12.00
2008,08,25,04,56,12.00
2008,08,25,04,57,12.00
2008,08,25,04,58,11.90
2008,08,25,04,59,11.90
2008,08,25,05,00,11.90
2008,08,25,05,01,11.90
2008,08,25,05,02,11.90
2008,08,25,05,03,11.80
2008,08,25,05,04,11.80
2008,08,25,05,05,11.70
2008,08,25,05,06,11.70
2008,08,25,05,07,11.60
2008,08,25,05,08,11.60
2008,08,25,05,09,11.60
2008,08,25,05,10,11.50
2008,08,25,05,11,11.50
2008,08,25,05,12,11.40
2008,08,25,05,13,11.40
2008,08,25,05,14,11.40
2008,08,25,05,15,11.30
2008,08,25,05,16,11.30
2008,08,25,05,17,11.20
2008,08,25,05,18,11.20
2008,08,25,05,19,11.20
2008,08,25,05,20,11.10
2008,08,25,05,21,11.10
2008,08,25,05,22,11.10
2008,08,25,05,23,11.10
2008,08,25,05,24,11.10
2008,08,25,05,25,11.10
2008,08,25,05,26,11.10
2008,08,25,05,27,11.00
2008,08,25,05,28,11.00
2008,08,25,05,29,11.00
2008,08,25,05,30,10.90
2008,08,25,05,31,10.90
2008,08,25,05,32,10.90
2008,08,25,05,33,10.80
2008,08,25,05,34,10.80
2008,08,25,05,35,10.80
2008,08,25,05,36,10.70
2008,08,25,05,37,10.70
2008,08,25,05,38,10.60
2008,08,25,05,39,10.60
2008,08,25,05,40,10.60
2008,08,25,05,41,10.60
2008,08,25,05,42,10.50
2008,08,25,05,43,10.50
2008,08,25,05,44,10.50
2008,08,25,05,45,10.60
2008,08,25,05,46,10.50
2008,08,25,05,47,10.50
2008,08,25,05,48,10.50
2008,08,25,05,49,10.50
2008,08,25,05,50,10.40
2008,08,25,05,51,10.40
2008,08,25,05,52,10.40
2008,08,25,05,53,10.30
2008,08,25,05,54,10.30
2008,08,25,05,55,10.30
2008,08,25,05,56,10.20
2008,08,25,05,57,10.20
2008,08,25,05,58,10.10
2008,08,25,05,59,10.10
2008,08,25,06,00,10.10
2008,08,25,06,01,10.10
2008,08,25,06,02,10.10
2008,08,25,06,03,10.10
2008,08,25,06,04,10.00
2008,08,25,06,05,10.00
2008,08,25,06,06,10.00
2008,08,25,06,07,9.90
2008,08,25,06,08,9.90
2008,08,25,06,09,9.90
2008,08,25,06,10,9.90
2008,08,25,06,11,9.90
2008,08,25,06,12,9.90
2008,08,25,06,13,9.90
2008,08,25,06,14,9.90
2008,08,25,06,15,9.90
2008,08,25,06,16,9.90
2008,08,25,06,17,9.80
2008,08,25,06,18,9.80
2008,08,25,06,19,9.80
2008,08,25,06,20,9.80
2008,08,25,06,21,9.80
2008,08,25,06,22,9.80
2008,08,25,06,23,9.80
2008,08,25,06,24,9.70
2008,08,25,06,25,9.70
2008,08,25,06,26,9.70
2008,08,25,06,27,9.70
2008,08,25,06,28,9.70
2008,08,25,06,29,9.60
2008,08,25,06,30,9.60
2008,08,25,06,31,9.60
2008,08,25,06,32,9.60
2008,08,25,06,33,9.60
2008,08,25,06,34,9.60
2008,08,25,06,35,9.60
2008,08,25,06,36,9.50
2008,08,25,06,37,9.60
2008,08,25,06,38,9.60
2008,08,25,06,39,9.60
2008,08,25,06,40,9.60
2008,08,25,06,41,9.60
2008,08,25,06,42,9.60
2008,08,25,06,43,9.60
2008,08,25,06,44,9.60
2008,08,25,06,45,9.60
2008,08,25,06,46,9.60
2008,08,25,06,47,9.60
2008,08,25,06,48,9.50
2008,08,25,06,49,9.50
2008,08,25,06,50,9.50
2008,08,25,06,51,9.60
2008,08,25,06,52,9.60
2008,08,25,06,53,9.60
2008,08,25,06,54,9.60
2008,08,25,06,55,9.50
2008,08,25,06,56,9.50
2008,08,25,06,57,9.50
2008,08,25,06,58,9.50
2008,08,25,06,59,9.50
2008,08,25,07,00,9.50
2008,08,25,07,01,9.50
2008,08,25,07,02,9.50
2008,08,25,07,03,9.50
2008,08,25,07,04,9.40
2008,08,25,07,05,9.40
2008,08,25,07,06,9.40
2008,08,25,07,07,9.40
2008,08,25,07,08,9.40
2008,08,25,07,09,9.40
2008,08,25,07,10,9.40
2008,08,25,07,11,9.40
2008,08,25,07,12,9.40
2008,08,25,07,13,9.50
2008,08,25,07,14,9.50
2008,08,25,07,15,9.50
2008,08,25,07,16,9.60
2008,08,25,07,17,9.60
2008,08,25,07,18,9.60
2008,08,25,07,19,9.60
2008,08,25,07,20,9.60
2008,08,25,07,21,9.70
2008,08,25,07,22,9.70
2008,08,25,07,23,9.70
2008,08,25,07,24,9.80
2008,08,25,07,25,9.80
2008,08,25,07,26,9.80
2008,08,25,07,27,9.80
2008,08,25,07,28,9.80
2008,08,25,07,29,9.80
2008,08,25,07,30,9.90
2008,08,25,07,31,9.90
2008,08,25,07,32,9.90
2008,08,25,07,33,9.90
2008,08,25,07,34,9.90
2008,08,25,07,35,9.90
2008,08,25,07,36,10.00
2008,08,25,07,37,10.00
2008,08,25,07,38,10.00
2008,08,25,07,39,10.00
2008,08,25,07,40,10.00
2008,08,25,07,41,10.00
2008,08,25,07,42,10.00
2008,08,25,07,43,10.00
2008,08,25,07,44,10.00
2008,08,25,07,45,10.00
2008,08,25,07,46,10.10
2008,08,25,07,47,10.10
2008,08,25,07,48,10.10
2008,08,25,07,49,10.10
2008,08,25,07,50,10.10
2008,08,25,07,51,10.10
2008,08,25,07,52,10.10
2008,08,25,07,53,10.20
2008,08,25,07,54,10.20
2008,08,25,07,55,10.20
2008,08,25,07,56,10.20
2008,08,25,07,57,10.30
2008,08,25,07,58,10.30
2008,08,25,07,59,10.40
2008,08,25,08,00,10.40
2008,08,25,08,01,10.40
2008,08,25,08,02,10.50
2008,08,25,08,03,10.60
2008,08,25,08,04,10.60
2008,08,25,08,05,10.70
2008,08,25,08,06,10.70
2008,08,25,08,07,10.70
2008,08,25,08,08,10.70
2008,08,25,08,09,10.80
2008,08,25,08,10,10.80
2008,08,25,08,11,10.80
2008,08,25,08,12,10.80
2008,08,25,08,13,10.90
2008,08,25,08,14,10.90
2008,08,25,08,15,11.00
2008,08,25,08,16,11.00
2008,08,25,08,17,11.00
2008,08,25,08,18,11.10
2008,08,25,08,19,11.10
2008,08,25,08,20,11.20
2008,08,25,08,21,11.20
2008,08,25,08,22,11.20
2008,08,25,08,23,11.30
2008,08,25,08,24,11.30
2008,08,25,08,25,11.30
2008,08,25,08,26,11.40
2008,08,25,08,27,11.40
2008,08,25,08,28,11.50
2008,08,25,08,29,11.50
2008,08,25,08,30,11.50
2008,08,25,08,31,11.60
2008,08,25,08,32,11.60
2008,08,25,08,33,11.60
2008,08,25,08,34,11.70
2008,08,25,08,35,11.70
2008,08,25,08,36,11.70
2008,08,25,08,37,11.80
2008,08,25,08,38,11.80
2008,08,25,08,39,11.80
2008,08,25,08,40,11.90
2008,08,25,08,41,11.90
2008,08,25,08,42,12.00
2008,08,25,08,43,12.00
2008,08,25,08,44,12.10
2008,08,25,08,45,12.10
2008,08,25,08,46,12.10
2008,08,25,08,47,12.20
2008,08,25,08,48,12.20
2008,08,25,08,49,12.30
2008,08,25,08,50,12.40
2008,08,25,08,51,12.40
2008,08,25,08,52,12.50
2008,08,25,08,53,12.50
2008,08,25,08,54,12.60
2008,08,25,08,55,12.70
2008,08,25,08,56,12.70
2008,08,25,08,57,12.80
2008,08,25,08,58,12.80
2008,08,25,08,59,12.90
2008,08,25,09,00,12.90
2008,08,25,09,01,13.00
2008,08,25,09,02,13.10
2008,08,25,09,03,13.10
2008,08,25,09,04,13.20
2008,08,25,09,05,13.30
2008,08,25,09,06,13.40
2008,08,25,09,07,13.40
2008,08,25,09,08,13.50
2008,08,25,09,09,13.50
2008,08,25,09,10,13.50
2008,08,25,09,11,13.60
2008,08,25,09,12,13.70
2008,08,25,09,13,13.70
2008,08,25,09,14,13.70
2008,08,25,09,15,13.80
2008,08,25,09,16,13.80
2008,08,25,09,17,13.80
2008,08,25,09,18,13.80
2008,08,25,09,19,13.80
2008,08,25,09,20,13.80
2008,08,25,09,21,13.90
2008,08,25,09,22,13.90
2008,08,25,09,23,13.90
2008,08,25,09,24,13.90
2008,08,25,09,25,13.90
2008,08,25,09,26,14.00
2008,08,25,09,27,14.10
2008,08,25,09,28,14.10
2008,08,25,09,29,14.10
2008,08,25,09,30,14.10
2008,08,25,09,31,14.10
2008,08,25,09,32,14.10
2008,08,25,09,33,14.20
2008,08,25,09,34,14.20
2008,08,25,09,35,14.20
2008,08,25,09,36,14.20
2008,08,25,09,37,14.20
2008,08,25,09,38,14.20
2008,08,25,09,39,14.20
2008,08,25,09,40,14.30
2008,08,25,09,41,14.30
2008,08,25,09,42,14.50
2008,08,25,09,43,14.60
2008,08,25,09,44,14.60
2008,08,25,09,45,14.70
2008,08,25,09,46,14.70
2008,08,25,09,47,14.70
2008,08,25,09,48,14.70
2008,08,25,09,49,14.80
2008,08,25,09,50,14.80
2008,08,25,09,51,14.90
2008,08,25,09,52,14.90
2008,08,25,09,53,14.90
2008,08,25,09,54,14.90
2008,08,25,09,55,15.00
2008,08,25,09,56,15.00
2008,08,25,09,57,15.00
2008,08,25,09,58,15.00
2008,08,25,09,59,15.00
2008,08,25,10,00,15.00
2008,08,25,10,01,15.00
2008,08,25,10,02,15.00
2008,08,25,10,03,15.00
2008,08,25,10,04,15.00
2008,08,25,10,05,15.00
2008,08,25,10,06,15.00
2008,08,25,10,07,15.00
2008,08,25,10,08,15.00
2008,08,25,10,09,15.00
2008,08,25,10,10,15.00
2008,08,25,10,11,15.00
2008,08,25,10,12,15.00
2008,08,25,10,13,15.00
2008,08,25,10,14,15.00
2008,08,25,10,15,15.00
2008,08,25,10,16,15.00
2008,08,25,10,17,15.00
2008,08,25,10,18,15.00
2008,08,25,10,19,15.00
2008,08,25,10,20,15.00
2008,08,25,10,21,15.00
2008,08,25,10,22,15.10
2008,08,25,10,23,15.10
2008,08,25,10,24,15.20
2008,08,25,10,25,15.20
2008,08,25,10,26,15.10
2008,08,25,10,27,15.10
2008,08,25,10,28,15.20
2008,08,25,10,29,15.30
2008,08,25,10,30,15.30
2008,08,25,10,31,15.40
2008,08,25,10,32,15.40
2008,08,25,10,33,15.40
2008,08,25,10,34,15.50
2008,08,25,10,35,15.60
2008,08,25,10,36,15.60
2008,08,25,10,37,15.60
2008,08,25,10,38,15.60
2008,08,25,10,39,15.60
2008,08,25,10,40,15.60
2008,08,25,10,41,15.60
2008,08,25,10,42,15.60
2008,08,25,10,43,15.60
2008,08,25,10,44,15.70
2008,08,25,10,45,15.70
2008,08,25,10,46,15.70
2008,08,25,10,47,15.70
2008,08,25,10,48,15.70
2008,08,25,10,49,15.70
2008,08,25,10,50,15.70
2008,08,25,10,51,15.70
2008,08,25,10,52,15.80
2008,08,25,10,53,15.80
2008,08,25,10,54,15.80
2008,08,25,10,55,15.90
2008,08,25,10,56,15.90
2008,08,25,10,57,15.90
2008,08,25,10,58,15.90
2008,08,25,10,59,15.90
2008,08,25,11,00,15.90
2008,08,25,11,01,16.00
2008,08,25,11,02,16.10
2008,08,25,11,03,16.10
2008,08,25,11,04,16.10
2008,08,25,11,05,16.10
2008,08,25,11,06,16.20
2008,08,25,11,07,16.30
2008,08,25,11,08,16.30
2008,08,25,11,09,16.30
2008,08,25,11,10,16.30
2008,08,25,11,11,16.30
2008,08,25,11,12,16.30
2008,08,25,11,13,16.30
2008,08,25,11,14,16.30
2008,08,25,11,15,16.30
2008,08,25,11,16,16.20
2008,08,25,11,17,16.20
2008,08,25,11,18,16.20
2008,08,25,11,19,16.20
2008,08,25,11,20,16.20
2008,08,25,11,21,16.20
2008,08,25,11,22,16.20
2008,08,25,11,23,16.20
2008,08,25,11,24,16.30
2008,08,25,11,25,16.30
2008,08,25,11,26,16.40
2008,08,25,11,27,16.40
2008,08,25,11,28,16.50
2008,08,25,11,29,16.60
2008,08,25,11,30,16.60
2008,08,25,11,31,16.70
2008,08,25,11,32,16.70
2008,08,25,11,33,16.80
2008,08,25,11,34,16.90
2008,08,25,11,35,17.00
2008,08,25,11,36,17.00
2008,08,25,11,37,17.00
2008,08,25,11,38,17.00
2008,08,25,11,39,17.10
2008,08,25,11,40,17.10
2008,08,25,11,41,17.10
2008,08,25,11,42,17.10
2008,08,25,11,43,17.10
2008,08,25,11,44,17.10
2008,08,25,11,45,17.20
2008,08,25,11,46,17.30
2008,08,25,11,47,17.40
2008,08,25,11,48,17.40
2008,08,25,11,49,17.40
2008,08,25,11,50,17.50
2008,08,25,11,51,17.50
2008,08,25,11,52,17.50
2008,08,25,11,53,17.50
2008,08,25,11,54,17.40
2008,08,25,11,55,17.30
2008,08,25,11,56,17.30
2008,08,25,11,57,17.20
2008,08,25,11,58,17.20
2008,08,25,11,59,17.20
2008,08,25,12,00,17.20
2008,08,25,12,01,17.20
2008,08,25,12,02,17.20
2008,08,25,12,03,17.30
2008,08,25,12,04,17.30
2008,08,25,12,05,17.30
2008,08,25,12,06,17.30
2008,08,25,12,07,17.40
2008,08,25,12,08,17.50
2008,08,25,12,09,17.50
2008,08,25,12,10,17.50
2008,08,25,12,11,17.50
2008,08,25,12,12,17.60
2008,08,25,12,13,17.80
2008,08,25,12,14,18.00
2008,08,25,12,15,18.20
2008,08,25,12,16,18.30
2008,08,25,12,17,18.20
2008,08,25,12,18,18.10
2008,08,25,12,19,18.10
2008,08,25,12,20,18.10
2008,08,25,12,21,17.90
2008,08,25,12,22,17.70
2008,08,25,12,23,17.60
2008,08,25,12,24,17.50
2008,08,25,12,25,17.40
2008,08,25,12,26,17.30
2008,08,25,12,27,17.30
2008,08,25,12,28,17.20
2008,08,25,12,29,17.20
2008,08,25,12,30,17.20
2008,08,25,12,31,17.10
2008,08,25,12,32,17.10
2008,08,25,12,33,17.20
2008,08,25,12,34,17.20
2008,08,25,12,35,17.30
2008,08,25,12,36,17.40
2008,08,25,12,37,17.50
2008,08,25,12,38,17.50
2008,08,25,12,39,17.40
2008,08,25,12,40,17.40
2008,08,25,12,41,17.40
2008,08,25,12,42,17.40
2008,08,25,12,43,17.40
2008,08,25,12,44,17.40
2008,08,25,12,45,17.30
2008,08,25,12,46,17.40
2008,08,25,12,47,17.40
2008,08,25,12,48,17.40
2008,08,25,12,49,17.50
2008,08,25,12,50,17.50
2008,08,25,12,51,17.50
2008,08,25,12,52,17.50
2008,08,25,12,53,17.50
2008,08,25,12,54,17.40
2008,08,25,12,55,17.40
2008,08,25,12,56,17.30
2008,08,25,12,57,17.30
2008,08,25,12,58,17.30
2008,08,25,12,59,17.30
2008,08,25,13,00,17.30
2008,08,25,13,01,17.30
2008,08,25,13,02,17.30
2008,08,25,13,03,17.30
2008,08,25,13,04,17.40
2008,08,25,13,05,17.40
2008,08,25,13,06,17.40
2008,08,25,13,07,17.50
2008,08,25,13,08,17.50
2008,08,25,13,09,17.60
2008,08,25,13,10,17.70
2008,08,25,13,11,17.60
2008,08,25,13,12,17.60
2008,08,25,13,13,17.60
2008,08,25,13,14,17.60
2008,08,25,13,15,17.50
2008,08,25,13,16,17.50
2008,08,25,13,17,17.40
2008,08,25,13,18,17.30
2008,08,25,13,19,17.20
2008,08,25,13,20,17.20
2008,08,25,13,21,17.20
2008,08,25,13,22,17.20
2008,08,25,13,23,17.20
2008,08,25,13,24,17.20
2008,08,25,13,25,17.20
2008,08,25,13,26,17.20
2008,08,25,13,27,17.30
2008,08,25,13,28,17.40
2008,08,25,13,29,17.50
2008,08,25,13,30,17.60
2008,08,25,13,31,17.50
2008,08,25,13,32,17.50
2008,08,25,13,33,17.60
2008,08,25,13,34,17.60
2008,08,25,13,35,17.60
2008,08,25,13,36,17.60
2008,08,25,13,37,17.70
2008,08,25,13,38,17.70
2008,08,25,13,39,17.80
2008,08,25,13,40,17.80
2008,08,25,13,41,17.80
2008,08,25,13,42,17.80
2008,08,25,13,43,17.80
2008,08,25,13,44,17.90
2008,08,25,13,45,17.90
2008,08,25,13,46,18.00
2008,08,25,13,47,18.00
2008,08,25,13,48,18.00
2008,08,25,13,49,18.10
2008,08,25,13,50,18.20
2008,08,25,13,51,18.30
2008,08,25,13,52,18.40
2008,08,25,13,53,18.30
2008,08,25,13,54,18.30
2008,08,25,13,55,18.30
2008,08,25,13,56,18.20
2008,08,25,13,57,18.20
2008,08,25,13,58,18.30
2008,08,25,13,59,18.30
2008,08,25,14,00,18.30
2008,08,25,14,01,18.30
2008,08,25,14,02,18.30
2008,08,25,14,03,18.30
2008,08,25,14,04,18.30
2008,08,25,14,05,18.30
2008,08,25,14,06,18.20
2008,08,25,14,07,18.20
2008,08,25,14,08,18.30
2008,08,25,14,09,18.40
2008,08,25,14,10,18.40
2008,08,25,14,11,18.30
2008,08,25,14,12,18.30
2008,08,25,14,13,18.20
2008,08,25,14,14,18.20
2008,08,25,14,15,18.10
2008,08,25,14,16,18.10
2008,08,25,14,17,18.10
2008,08,25,14,18,18.20
2008,08,25,14,19,18.20
2008,08,25,14,20,18.20
2008,08,25,14,21,18.10
2008,08,25,14,22,18.00
2008,08,25,14,23,18.00
2008,08,25,14,24,17.90
2008,08,25,14,25,18.00
2008,08,25,14,26,18.00
2008,08,25,14,27,18.10
2008,08,25,14,28,18.20
2008,08,25,14,29,18.20
2008,08,25,14,30,18.20
2008,08,25,14,31,18.20
2008,08,25,14,32,18.10
2008,08,25,14,33,18.10
2008,08,25,14,34,18.10
2008,08,25,14,35,18.00
2008,08,25,14,36,18.00
2008,08,25,14,37,17.90
2008,08,25,14,38,17.90
2008,08,25,14,39,17.80
2008,08,25,14,40,17.80
2008,08,25,14,41,17.70
2008,08,25,14,42,17.70
2008,08,25,14,43,17.70
2008,08,25,14,44,17.70
2008,08,25,14,45,17.60
2008,08,25,14,46,17.60
2008,08,25,14,47,17.60
2008,08,25,14,48,17.60
2008,08,25,14,49,17.60
2008,08,25,14,50,17.60
2008,08,25,14,51,17.60
2008,08,25,14,52,17.60
2008,08,25,14,53,17.60
2008,08,25,14,54,17.60
2008,08,25,14,55,17.60
2008,08,25,14,56,17.60
2008,08,25,14,57,17.60
2008,08,25,14,58,17.60
2008,08,25,14,59,17.70
2008,08,25,15,00,17.70
2008,08,25,15,01,17.70
2008,08,25,15,02,17.70
2008,08,25,15,03,17.70
2008,08,25,15,04,17.70
2008,08,25,15,05,17.80
2008,08,25,15,06,17.80
2008,08,25,15,07,17.70
2008,08,25,15,08,17.70
2008,08,25,15,09,17.60
2008,08,25,15,10,17.60
2008,08,25,15,11,17.60
2008,08,25,15,12,17.50
2008,08,25,15,13,17.40
2008,08,25,15,14,17.40
2008,08,25,15,15,17.30
2008,08,25,15,16,17.30
2008,08,25,15,17,17.30
2008,08,25,15,18,17.20
2008,08,25,15,19,17.20
2008,08,25,15,20,17.20
2008,08,25,15,21,17.20
2008,08,25,15,22,17.20
2008,08,25,15,23,17.20
2008,08,25,15,24,17.30
2008,08,25,15,25,17.30
2008,08,25,15,26,17.30
2008,08,25,15,27,17.30
2008,08,25,15,28,17.40
2008,08,25,15,29,17.40
2008,08,25,15,30,17.40
2008,08,25,15,31,17.50
2008,08,25,15,32,17.50
2008,08,25,15,33,17.60
2008,08,25,15,34,17.60
2008,08,25,15,35,17.60
2008,08,25,15,36,17.50
2008,08,25,15,37,17.50
2008,08,25,15,38,17.40
2008,08,25,15,39,17.30
2008,08,25,15,40,17.30
2008,08,25,15,41,17.30
2008,08,25,15,42,17.30
2008,08,25,15,43,17.30
2008,08,25,15,44,17.30
2008,08,25,15,45,17.30
2008,08,25,15,46,17.30
2008,08,25,15,47,17.20
2008,08,25,15,48,17.20
2008,08,25,15,49,17.20
2008,08,25,15,50,17.20
2008,08,25,15,51,17.30
2008,08,25,15,52,17.30
2008,08,25,15,53,17.40
2008,08,25,15,54,17.50
2008,08,25,15,55,17.60
2008,08,25,15,56,17.70
2008,08,25,15,57,17.80
2008,08,25,15,58,17.90
2008,08,25,15,59,18.00
2008,08,25,16,00,18.10
2008,08,25,16,01,18.20
2008,08,25,16,02,18.30
2008,08,25,16,03,18.40
2008,08,25,16,04,18.50
2008,08,25,16,05,18.40
2008,08,25,16,06,18.50
2008,08,25,16,07,18.50
2008,08,25,16,08,18.50
2008,08,25,16,09,18.50
2008,08,25,16,10,18.40
2008,08,25,16,11,18.30
2008,08,25,16,12,18.10
2008,08,25,16,13,18.00
2008,08,25,16,14,17.90
2008,08,25,16,15,17.90
2008,08,25,16,16,17.90
2008,08,25,16,17,17.90
2008,08,25,16,18,17.90
2008,08,25,16,19,17.90
2008,08,25,16,20,17.90
2008,08,25,16,21,17.90
2008,08,25,16,22,17.90
2008,08,25,16,23,17.80
2008,08,25,16,24,17.70
2008,08,25,16,25,17.60
2008,08,25,16,26,17.60
2008,08,25,16,27,17.50
2008,08,25,16,28,17.40
2008,08,25,16,29,17.40
2008,08,25,16,30,17.30
2008,08,25,16,31,17.30
2008,08,25,16,32,17.30
2008,08,25,16,33,17.30
2008,08,25,16,34,17.30
2008,08,25,16,35,17.30
2008,08,25,16,36,17.30
2008,08,25,16,37,17.30
2008,08,25,16,38,17.30
2008,08,25,16,39,17.30
2008,08,25,16,40,17.30
2008,08,25,16,41,17.20
2008,08,25,16,42,17.20
2008,08,25,16,43,17.20
2008,08,25,16,44,17.20
2008,08,25,16,45,17.20
2008,08,25,16,46,17.20
2008,08,25,16,47,17.20
2008,08,25,16,48,17.20
2008,08,25,16,49,17.20
2008,08,25,16,50,17.20
2008,08,25,16,51,17.20
2008,08,25,16,52,17.20
2008,08,25,16,53,17.20
2008,08,25,16,54,17.30
2008,08,25,16,55,17.30
2008,08,25,16,56,17.30
2008,08,25,16,57,17.30
2008,08,25,16,58,17.30
2008,08,25,16,59,17.30
2008,08,25,17,00,17.40
2008,08,25,17,01,17.40
2008,08,25,17,02,17.50
2008,08,25,17,03,17.60
2008,08,25,17,04,17.70
2008,08,25,17,05,17.70
2008,08,25,17,06,17.80
2008,08,25,17,07,17.80
2008,08,25,17,08,17.70
2008,08,25,17,09,17.70
2008,08,25,17,10,17.70
2008,08,25,17,11,17.80
2008,08,25,17,12,17.80
2008,08,25,17,13,17.90
2008,08,25,17,14,18.00
2008,08,25,17,15,18.10
2008,08,25,17,16,18.20
2008,08,25,17,17,18.20
2008,08,25,17,18,18.20
2008,08,25,17,19,18.20
2008,08,25,17,20,18.30
2008,08,25,17,21,18.40
2008,08,25,17,22,18.50
2008,08,25,17,23,18.60